| time (UTC) | temp F | wind direction | speed knots | gust knots | rain 1hr in | rain 24hr in | rain mn in | humidity % | barometer mb |
| 20260905021730 | 52 | 270 | 7.8 | 18.2 | 0.00 | 0.00 | 0.00 | 99 | |
| 20260905012031 | 52 | 280 | 12.2 | 20.0 | 0.00 | 0.00 | 0.00 | 99 | |
| 20260905001746 | 52 | 280 | 14.8 | 26.9 | 0.00 | 0.00 | 0.00 | 93 | |
| 20260904231801 | 54 | 270 | 14.8 | 27.8 | 0.00 | 0.00 | 0.00 | 99 | |
| 20260904222146 | 54 | 270 | 11.3 | 20.9 | 0.00 | 0.00 | 0.00 | 99 | |
| 20260904211747 | 54 | 360 | 11.3 | 0.0 | 0.00 | 0.00 | 0.00 | 93 | |
| 20260904201746 | 55 | 20 | 5.2 | 0.0 | 0.00 | 0.00 | 0.00 | 87 | |
| 20260904192032 | 57 | 360 | 8.7 | 0.0 | 0.00 | 0.00 | 0.00 | 82 | |
| 20260904181730 | 66 | 280 | 5.2 | 14.8 | 0.00 | 0.00 | 0.00 | 72 | |
| 20260904171746 | 68 | 220 | 13.9 | 20.9 | 0.00 | 0.00 | 0.00 | 68 | |
| 20260904162032 | 70 | 210 | 13.0 | 20.9 | 0.00 | 0.00 | 0.00 | 64 | |
| 20260904151747 | 70 | 200 | 15.6 | 21.7 | 0.00 | 0.00 | 0.00 | 68 | |
| 20260904141730 | 70 | 200 | 20.0 | 28.7 | 0.00 | 0.00 | 0.00 | 68 | |
| 20260904131946 | 68 | 210 | 17.4 | 25.2 | 0.00 | 0.00 | 0.00 | 72 | |
| 20260904121730 | 68 | 220 | 20.0 | 31.3 | 0.00 | 0.00 | 0.00 | 72 | |
| 20260904111730 | 66 | 230 | 20.0 | 31.3 | 0.00 | 0.00 | 0.00 | 77 | |
| 20260904102148 | 64 | 230 | 14.8 | 28.7 | 0.00 | 0.00 | 0.00 | 77 | |
| 20260904091746 | 61 | 220 | 13.0 | 19.1 | 0.00 | 0.00 | 0.00 | 93 | |
| 20260904081746 | 59 | 210 | 13.9 | 20.0 | 0.00 | 0.00 | 0.00 | 99 | |
| 20260904061730 | 57 | 220 | 11.3 | 17.4 | 0.00 | 0.00 | 0.00 | 99 | |
| 20260904051730 | 57 | 220 | 8.7 | 0.0 | 0.00 | 0.00 | 0.00 | 99 | |
| 20260904042133 | 57 | 240 | 7.0 | 13.0 | 0.00 | 0.00 | 0.00 | 93 | |
| 20260904031730 | 57 | 240 | 8.7 | 14.8 | 0.00 | 0.00 | 0.00 | 93 |